Puebla, Mexico

11:29 AM CDT on September 27, 2016 (GMT -0500)
Hermanos Serdan International

Weather History for MMPB - January, 2013

Change the Weather History Date:

Wednesday, January 16, 2013

  Actual Average Record
Temperature  
Mean Temperature 60 °F -  
Max Temperature 74 °F 63 °F 75 °F (2012)
Min Temperature 46 °F 40 °F 33 °F (2014)
Degree Days  
Heating Degree Days 5    
Growing Degree Days 10 (Base 50)    
Moisture  
Dew Point 42 °F    
Average Humidity 55    
Maximum Humidity 81    
Minimum Humidity 23    
Precipitation  
Precipitation 0.00 in - - ()
Sea Level Pressure  
Sea Level Pressure 30.15 in    
Wind  
Wind Speed 5 mph ()    
Max Wind Speed 17 mph    
Max Gust Speed -    
Visibility 7.2 miles    
Events      
Averages and records for this station are not official NWS values.
T = Trace of Precipitation, MM = Missing Value Source: Averaged Metar Reports

Daily Weather History Graph

Daily Weather History Graph

Search for Another Location

Airport or City:

Trip Planner

Search our weather history database for the weather conditions in past years. The results will help you decide how hot, cold, wet, or windy it might be!

Date:

Astronomy

Jan. 16, 2013 Rise Set
Actual Time 7:09 AM CST 6:17 PM CST
Civil Twilight 6:46 AM CST 6:40 PM CST
Nautical Twilight 6:19 AM CST 7:07 PM CST
Astronomical Twilight 5:53 AM CST 7:33 PM CST
Moon 10:37 AM CST (1/16) 11:14 PM CST (1/16)
Length of Visible Light 11h 53m
Length of Day
11h 07m
Waxing Crescent, 28% of the Moon is Illuminated
Jan 16
Waxing Crescent
Jan 18
First Quarter
Jan 26
Full
Feb 3
Last Quarter
Feb 10
New

Hourly Weather History & Observations

Time (CST) Temp. Windchill Dew Point Humidity Pressure Visibility Wind Dir Wind Speed Gust Speed Precip Events Conditions
2:45 AM 51 °F - 42 °F 61% 29.79 in 3 mi East 2.2 mph - -  
5:45 AM 48 °F - 42 °F 75% 29.88 in 3 mi Calm Calm - -  
5:52 AM 41.0 °F - 35.6 °F 81% 30.28 in 6.0 mi WNW 2.3 mph - N/A   Partly Cloudy
6:41 AM 42.8 °F 39.3 °F 37.4 °F 81% 30.29 in 7.0 mi NW 5.8 mph - N/A   Partly Cloudy
7:44 AM 42.8 °F 38.6 °F 37.4 °F 81% 30.32 in 7.0 mi NNW 6.9 mph - N/A   Clear
8:41 AM 51.8 °F - 39.2 °F 62% 30.33 in 6.0 mi West 2.3 mph - N/A   Clear
8:50 AM 54 °F - 49 °F 76% 30.00 in 3 mi Calm Calm - -   Haze
9:41 AM 59.0 °F - 44.6 °F 59% 30.33 in 6.0 mi South 6.9 mph - N/A   Clear
10:41 AM 62.6 °F - 46.4 °F 55% 30.32 in 6.0 mi SSW 11.5 mph - N/A   Scattered Clouds
11:42 AM 64.4 °F - 46.4 °F 52% 30.28 in 7.0 mi South 12.7 mph - N/A   Mostly Cloudy
11:50 AM 65 °F - 47 °F 41% 29.94 in 12 mi ESE 4.5 mph - -   Mostly Cloudy
12:43 PM 68.0 °F - 44.6 °F 43% 30.25 in 7.0 mi South 12.7 mph - N/A   Mostly Cloudy
1:40 PM 68.0 °F - 42.8 °F 40% 30.21 in 8.0 mi South 12.7 mph - N/A   Mostly Cloudy
2:41 PM 69.8 °F - 42.8 °F 38% 30.19 in 8.0 mi SE 11.5 mph - N/A   Mostly Cloudy
2:50 PM 72 °F - 42 °F 23% 29.78 in 12 mi SSE 4.5 mph - -   Partly Cloudy
3:40 PM 69.8 °F - 41.0 °F 35% 30.18 in 8.0 mi SSE 17.3 mph - N/A   Scattered Clouds
4:40 PM 69.8 °F - 39.2 °F 33% 30.19 in 9.0 mi SSE 11.5 mph - N/A   Scattered Clouds
5:42 PM 66.2 °F - 39.2 °F 37% 30.22 in 9.0 mi South 9.2 mph - N/A   Scattered Clouds
5:50 PM 67 °F - 39 °F 25% 29.74 in 12 mi East 4.5 mph - -   Scattered Clouds
6:41 PM 59.0 °F - 41.0 °F 51% 30.25 in 9.0 mi SSE 6.9 mph - N/A   Scattered Clouds
7:41 PM 57.2 °F - 42.8 °F 59% 30.29 in 8.0 mi ESE 6.9 mph - N/A   Scattered Clouds
8:41 PM 55.4 °F - 39.2 °F 54% 30.31 in 8.0 mi North 6.9 mph - N/A   Scattered Clouds
8:45 PM 56 °F - 46 °F 61% 29.78 in 3 mi NE 2.2 mph - -   Scattered Clouds
9:42 PM 51.8 °F - 39.2 °F 62% 30.33 in 8.0 mi North 4.6 mph - N/A   Scattered Clouds
10:43 PM 50.0 °F - 39.2 °F 66% 30.34 in 8.0 mi NNW 5.8 mph - N/A   Scattered Clouds
11:40 PM 46.4 °F 42.9 °F 37.4 °F 71% 30.34 in 8.0 mi NNW 6.9 mph - N/A   Scattered Clouds
11:45 PM 51 °F - 46 °F 75% 29.85 in 3 mi ENE 2.2 mph - -